FW9050 Weather Reports


time (UTC)temp
F
wind
direction
speed
knots
gust
knots
rain 1hr
in
rain 24hr
in
rain mn
in
humidity
%
barometer
mb
20260505071552 60 153 1.7 5.2 0.00 0.00 0.00 66 1011.2
20260505071048 60 147 0.9 4.3 0.00 0.00 0.00 66 1011.1
20260505070548 61 172 0.9 4.3 0.00 0.00 0.00 65 1011.1
20260505070051 61 224 0.9 3.5 0.00 0.00 0.00 66 1011.0
20260505065551 60 153 0.9 2.6 0.00 0.00 0.00 66 1011.0
20260505065050 60 132 0.9 1.7 0.00 0.00 0.00 66 1011.1
20260505064617 60 115 0.0 1.7 0.00 0.00 0.00 66 1011.0
20260505064047 61 165 0.0 2.6 0.00 0.00 0.00 65 1011.0
20260505063548 61 159 0.9 2.6 0.00 0.00 0.00 65 1011.1
20260505063056 61 143 0.9 2.6 0.00 0.00 0.00 65 1011.2
20260505062548 61 159 0.0 3.5 0.00 0.00 0.00 65 1011.2
20260505062048 61 165 0.9 3.5 0.00 0.00 0.00 65 1011.1
20260505061552 61 205 0.9 4.3 0.00 0.00 0.00 65 1011.1
20260505061048 61 176 0.9 4.3 0.00 0.00 0.00 65 1011.2
20260505060548 61 181 1.7 2.6 0.00 0.00 0.00 65 1011.1
20260505055549 61 81 0.9 3.5 0.00 0.00 0.00 65 1011.2
20260505055048 61 155 0.0 1.7 0.00 0.00 0.00 65 1011.2
20260505054557 61 218 0.0 1.7 0.00 0.00 0.00 64 1011.2
20260505054049 61 219 0.0 2.6 0.00 0.00 0.00 64 1011.2
20260505053547 61 211 0.0 2.6 0.00 0.00 0.00 64 1011.3
20260505053052 62 143 0.9 1.7 0.00 0.00 0.00 63 1011.4
20260505052548 62 127 0.0 1.7 0.00 0.00 0.00 63 1011.3
20260505052048 62 140 0.0 2.6 0.00 0.00 0.00 62 1011.3
20260505051552 62 212 0.0 2.6 0.00 0.00 0.00 62 1011.3
20260505051049 62 162 0.0 2.6 0.00 0.00 0.00 62 1011.4
20260505050547 63 148 0.9 2.6 0.00 0.00 0.00 61 1011.4
20260505041551 64 147 1.7 4.3 0.00 0.00 0.00 58 1011.3
20260505041047 64 148 0.9 5.2 0.00 0.00 0.00 58 1011.3
20260505040552 64 122 2.6 5.2 0.00 0.00 0.00 57 1011.2
20260505035547 64 150 1.7 3.5 0.00 0.00 0.00 57 1011.2
20260505035049 64 165 0.9 3.5 0.00 0.00 0.00 58 1011.1
20260505034553 64 90 0.9 3.5 0.00 0.00 0.00 57 1011.3
20260505034059 64 156 1.7 3.5 0.00 0.00 0.00 57 1011.2
20260505033548 64 224 0.9 2.6 0.00 0.00 0.00 57 1011.2
20260505033056 64 188 0.9 2.6 0.00 0.00 0.00 57 1011.4
20260505032548 64 160 0.0 2.6 0.00 0.00 0.00 57 1011.2
20260505032048 64 177 0.9 3.5 0.00 0.00 0.00 57 1011.2
20260505031559 64 162 1.7 3.5 0.00 0.00 0.00 56 1011.3
20260505031050 64 200 0.9 3.5 0.00 0.00 0.00 56 1011.2
20260505030549 65 157 1.7 3.5 0.00 0.00 0.00 56 1011.1
20260505030054 64 154 0.9 3.5 0.00 0.00 0.00 56 1011.1
20260505025548 65 160 0.9 3.5 0.00 0.00 0.00 56 1011.0
20260505025049 65 163 0.9 3.5 0.00 0.00 0.00 55 1011.1
20260505024553 64 141 0.9 2.6 0.00 0.00 0.00 56 1011.2
20260505024048 64 158 0.0 4.3 0.00 0.00 0.00 56 1011.1
20260505023549 65 200 0.9 4.3 0.00 0.00 0.00 56 1011.2
20260505023052 64 170 0.9 4.3 0.00 0.00 0.00 56 1011.2
20260505022549 64 155 0.9 4.3 0.00 0.00 0.00 56 1011.1
20260505022049 64 155 1.7 4.3 0.00 0.00 0.00 56 1011.1
20260505021552 64 169 0.9 2.6 0.00 0.00 0.00 56 1011.0
20260505021047 64 149 0.9 2.6 0.00 0.00 0.00 55 1011.1
20260505020550 64 165 0.0 0.9 0.00 0.00 0.00 55 1011.0
20260505020052 65 165 0.0 0.9 0.00 0.00 0.00 54 1010.9
20260505015549 65 149 0.0 1.7 0.00 0.00 0.00 54 1011.0
20260505015048 65 149 0.0 1.7 0.00 0.00 0.00 53 1011.0
20260505014603 65 146 0.0 0.9 0.00 0.00 0.00 53 1011.1
20260505014051 65 175 0.0 0.9 0.00 0.00 0.00 53 1010.9
20260505013549 66 174 0.0 1.7 0.00 0.00 0.00 52 1010.8
20260505013052 66 172 0.0 1.7 0.00 0.00 0.00 53 1010.6
20260505012548 66 171 0.0 0.9 0.00 0.00 0.00 51 1010.7
20260505012048 66 169 0.0 2.6 0.00 0.00 0.00 52 1010.3
20260505011554 67 151 0.9 2.6 0.00 0.00 0.00 51 1010.4
20260505011049 67 223 0.9 2.6 0.00 0.00 0.00 50 1010.5
20260505010551 67 138 0.0 3.5 0.00 0.00 0.00 50 1010.5
20260505010052 67 228 0.9 3.5 0.00 0.00 0.00 49 1010.4
20260505005549 67 173 0.9 1.7 0.00 0.00 0.00 49 1010.3
20260505005048 68 167 0.0 1.7 0.00 0.00 0.00 48 1010.3
20260505004557 68 243 0.0 2.6 0.00 0.00 0.00 48 1010.3
20260505004047 68 205 0.9 2.6 0.00 0.00 0.00 47 1010.2
20260505003550 69 153 0.9 3.5 0.00 0.00 0.00 47 1010.2
20260505003056 69 231 0.9 3.5 0.00 0.00 0.00 46 1010.2
20260505002551 69 167 0.9 3.5 0.00 0.00 0.00 46 1010.2
20260505002048 69 185 1.7 3.5 0.00 0.00 0.00 46 1010.1
20260505001557 69 173 1.7 3.5 0.00 0.00 0.00 46 1010.1
20260505001048 69 240 0.9 3.5 0.00 0.00 0.00 46 1010.3
20260505000548 69 240 0.9 3.5 0.00 0.00 0.00 46 1010.3
20260505000057 69 158 0.9 3.5 0.00 0.00 0.00 46 1010.3
20260504235550 70 204 0.9 3.5 0.00 0.00 0.00 45 1010.2
20260504235048 70 218 0.9 2.6 0.00 0.00 0.00 44 1010.2
20260504234555 70 162 0.9 3.5 0.00 0.00 0.00 45 1010.0
20260504234049 70 201 1.7 3.5 0.00 0.00 0.00 44 1010.0
20260504233549 71 219 0.9 5.2 0.00 0.00 0.00 44 1010.1
20260504233055 71 214 1.7 5.2 0.00 0.00 0.00 44 1010.0
20260504232549 71 185 0.9 3.5 0.00 0.00 0.00 43 1010.0
20260504232049 72 131 1.7 2.6 0.00 0.00 0.00 42 1010.0
20260504231556 72 167 0.9 7.0 0.00 0.00 0.00 43 1009.9
20260504231048 72 203 2.6 7.0 0.00 0.00 0.00 41 1010.0
20260504230549 72 167 2.6 6.1 0.00 0.00 0.00 41 1010.0
20260504230058 72 195 2.6 7.0 0.00 0.00 0.00 41 1010.0
20260504225550 72 155 2.6 7.0 0.00 0.00 0.00 41 1010.0
20260504225048 72 112 2.6 8.7 0.00 0.00 0.00 40 1010.0
20260504224559 73 162 2.6 8.7 0.00 0.00 0.00 40 1010.0
20260504224051 73 191 2.6 10.4 0.00 0.00 0.00 41 1010.1
20260504223552 73 153 4.3 10.4 0.00 0.00 0.00 40 1010.0
20260504223057 73 180 3.5 9.6 0.00 0.00 0.00 40 1010.0
20260504222552 73 146 3.5 10.4 0.00 0.00 0.00 39 1009.8
20260504222047 73 197 3.5 10.4 0.00 0.00 0.00 40 1009.8
20260504221600 73 207 2.6 7.0 0.00 0.00 0.00 41 1009.8
20260504221049 73 224 1.7 7.0 0.00 0.00 0.00 41 1009.9
20260504220548 73 195 2.6 7.0 0.00 0.00 0.00 39 1009.8
20260504220056 73 229 0.9 6.1 0.00 0.00 0.00 40 1009.8
20260504215551 74 137 2.6 6.1 0.00 0.00 0.00 37 1009.8
20260504215050 74 150 2.6 6.1 0.00 0.00 0.00 37 1009.8
20260504214603 74 106 2.6 7.8 0.00 0.00 0.00 37 1009.9
20260504214048 74 153 2.6 7.8 0.00 0.00 0.00 38 1009.8
20260504213549 74 158 2.6 7.8 0.00 0.00 0.00 39 1009.8
20260504213058 74 214 1.7 7.8 0.00 0.00 0.00 37 1009.9
20260504212548 74 229 2.6 7.8 0.00 0.00 0.00 37 1010.0
20260504212049 74 122 2.6 4.3 0.00 0.00 0.00 37 1009.9
20260504211554 74 102 2.6 7.0 0.00 0.00 0.00 37 1009.9
20260504211048 74 210 1.7 7.0 0.00 0.00 0.00 40 1010.0
20260504210548 74 128 1.7 5.2 0.00 0.00 0.00 40 1009.9
20260504205549 74 226 1.7 6.1 0.00 0.00 0.00 38 1009.9
20260504205051 74 101 2.6 9.6 0.00 0.00 0.00 36 1009.9
20260504204608 74 160 3.5 9.6 0.00 0.00 0.00 38 1010.1
20260504204048 74 276 2.6 7.0 0.00 0.00 0.00 38 1009.9
20260504203548 75 284 2.6 5.2 0.00 0.00 0.00 36 1010.0
20260504203111 75 158 1.7 7.0 0.00 0.00 0.00 38 1010.0
20260504202550 75 163 1.7 7.0 0.00 0.00 0.00 41 1010.0
20260504202051 75 166 2.6 7.0 0.00 0.00 0.00 39 1010.1
20260504201551 75 313 0.9 7.8 0.00 0.00 0.00 39 1010.3
20260504201048 75 144 4.3 7.8 0.00 0.00 0.00 37 1010.4
20260504200548 75 181 2.6 7.8 0.00 0.00 0.00 38 1010.3
20260504200054 74 255 1.7 7.0 0.00 0.00 0.00 38 1010.4
20260504195548 74 268 2.6 7.0 0.00 0.00 0.00 39 1010.6
20260504195048 75 241 3.5 7.0 0.00 0.00 0.00 37 1010.6
20260504194553 75 122 2.6 7.8 0.00 0.00 0.00 38 1010.6
20260504194051 75 259 3.5 8.7 0.00 0.00 0.00 36 1010.8
20260504193548 76 205 4.3 8.7 0.00 0.00 0.00 36 1010.9
20260504193054 76 190 2.6 6.1 0.00 0.00 0.00 37 1010.9
20260504192547 77 113 2.6 6.1 0.00 0.00 0.00 35 1011.0
20260504192050 76 141 2.6 6.1 0.00 0.00 0.00 38 1011.2
20260504191600 75 150 1.7 6.1 0.00 0.00 0.00 41 1011.2
20260504191050 75 205 1.7 10.4 0.00 0.00 0.00 38 1011.4
20260504190548 75 153 4.3 10.4 0.00 0.00 0.00 37 1011.4
20260504190055 76 258 2.6 9.6 0.00 0.00 0.00 37 1011.4
20260504185548 76 259 0.9 5.2 0.00 0.00 0.00 40 1011.7
20260504185048 76 271 2.6 5.2 0.00 0.00 0.00 37 1011.7
20260504184556 76 271 1.7 5.2 0.00 0.00 0.00 38 1011.8
20260504184048 75 149 1.7 8.7 0.00 0.00 0.00 36 1011.8
20260504183548 74 170 3.5 8.7 0.00 0.00 0.00 38 1012.0
20260504183100 75 118 4.3 9.6 0.00 0.00 0.00 38 1012.0
20260504182549 74 217 2.6 9.6 0.00 0.00 0.00 37 1012.1
20260504182047 74 233 2.6 9.6 0.00 0.00 0.00 35 1012.2
20260504181551 74 228 2.6 7.8 0.00 0.00 0.00 39 1012.3
20260504181051 74 185 1.7 7.8 0.00 0.00 0.00 37 1012.1
20260504180552 74 86 1.7 7.8 0.00 0.00 0.00 38 1012.2
20260504180109 73 140 1.7 7.0 0.00 0.00 0.00 39 1012.3
20260504175548 74 138 2.6 8.7 0.00 0.00 0.00 36 1012.4
20260504175052 73 242 1.7 8.7 0.00 0.00 0.00 40 1012.5
20260504174551 73 231 2.6 7.0 0.00 0.00 0.00 38 1012.5
20260504174050 73 157 2.6 7.0 0.00 0.00 0.00 38 1012.7
20260504173548 73 212 1.7 7.0 0.00 0.00 0.00 39 1012.7
20260504173105 73 122 2.6 7.0 0.00 0.00 0.00 37 1012.9
20260504172548 73 274 1.7 7.0 0.00 0.00 0.00 37 1012.7
20260504172047 73 255 2.6 7.0 0.00 0.00 0.00 38 1012.9
20260504171556 72 165 2.6 7.0 0.00 0.00 0.00 38 1012.8
20260504171049 73 209 2.6 6.1 0.00 0.00 0.00 39 1013.0
20260504170551 73 192 2.6 6.1 0.00 0.00 0.00 35 1012.9
20260504151048 67 139 1.7 7.0 0.00 0.00 0.00 41 1014.0
20260504150548 67 275 1.7 7.0 0.00 0.00 0.00 40 1014.2
20260504141048 65 254 0.9 4.3 0.00 0.00 0.00 43 1014.1
20260504140549 64 163 0.9 4.3 0.00 0.00 0.00 51 1014.2
20260504140110 63 215 1.7 4.3 0.00 0.00 0.00 51 1014.3
20260504130548 59 231 0.9 4.3 0.00 0.00 0.00 55 1014.5
20260504110551 48 201 0.9 1.7 0.00 0.00 0.00 68 1015.2
20260504100550 49 145 0.9 2.6 0.00 0.00 0.00 67 1014.9
20260504081557 50 0 0.0 0.9 0.00 0.00 0.00 61 1015.4
20260504081049 50 0 0.0 1.7 0.00 0.00 0.00 61 1015.4
20260504080554 49 149 0.0 1.7 0.00 0.00 0.00 59 1015.4